| time (UTC) | temp F | wind direction | speed knots | gust knots | rain 1hr in | rain 24hr in | rain mn in | humidity % | barometer mb |
| 20260906220034 | 89 | 207 | 7.8 | 13.0 | 0.00 | 0.01 | 0.01 | 16 | 1019.4 |
| 20260906215535 | 88 | 221 | 8.7 | 14.8 | 0.00 | 0.01 | 0.01 | 16 | 1019.4 |
| 20260906215035 | 88 | 218 | 8.7 | 14.8 | 0.00 | 0.01 | 0.01 | 16 | 1019.4 |
| 20260906214532 | 88 | 222 | 7.8 | 13.0 | 0.00 | 0.01 | 0.01 | 15 | 1019.5 |
| 20260906214034 | 88 | 275 | 7.0 | 13.0 | 0.00 | 0.01 | 0.01 | 15 | 1019.6 |
| 20260906213534 | 88 | 254 | 7.8 | 12.2 | 0.00 | 0.01 | 0.01 | 16 | 1019.6 |
| 20260906213031 | 88 | 231 | 7.8 | 14.8 | 0.00 | 0.01 | 0.01 | 16 | 1019.6 |
| 20260906212531 | 88 | 259 | 7.8 | 14.8 | 0.00 | 0.01 | 0.01 | 16 | 1019.5 |
| 20260906212030 | 89 | 218 | 8.7 | 15.6 | 0.00 | 0.01 | 0.01 | 16 | 1019.5 |
| 20260906211536 | 90 | 259 | 10.4 | 18.2 | 0.00 | 0.01 | 0.01 | 16 | 1019.8 |
| 20260906211530 | 90 | 250 | 8.7 | 15.6 | 0.00 | 0.01 | 0.01 | 17 | 1019.6 |
| 20260906210536 | 91 | 221 | 9.6 | 16.5 | 0.00 | 0.01 | 0.01 | 16 | 1020.0 |
| 20260906210530 | 91 | 246 | 11.3 | 18.2 | 0.00 | 0.01 | 0.01 | 15 | 1019.9 |
| 20260906205530 | 90 | 235 | 10.4 | 16.5 | 0.00 | 0.01 | 0.01 | 15 | 1020.2 |
| 20260906205030 | 90 | 239 | 11.3 | 19.1 | 0.00 | 0.01 | 0.01 | 15 | 1020.3 |
| 20260906204530 | 90 | 221 | 11.3 | 19.1 | 0.00 | 0.01 | 0.01 | 15 | 1020.5 |
| 20260906204030 | 90 | 227 | 11.3 | 20.9 | 0.00 | 0.01 | 0.01 | 16 | 1020.6 |
| 20260906203529 | 90 | 221 | 9.6 | 20.9 | 0.00 | 0.01 | 0.01 | 15 | 1020.7 |
| 20260906203030 | 89 | 247 | 9.6 | 17.4 | 0.00 | 0.01 | 0.01 | 17 | 1020.6 |
| 20260906202531 | 89 | 263 | 12.2 | 18.2 | 0.00 | 0.01 | 0.01 | 15 | 1020.6 |
| 20260906202030 | 90 | 207 | 12.2 | 20.9 | 0.00 | 0.01 | 0.01 | 15 | 1020.8 |
| 20260906201532 | 90 | 216 | 12.2 | 20.9 | 0.00 | 0.01 | 0.01 | 15 | 1020.8 |
| 20260906201032 | 90 | 220 | 13.0 | 20.0 | 0.00 | 0.01 | 0.01 | 15 | 1020.8 |
| 20260906200530 | 89 | 231 | 11.3 | 19.1 | 0.00 | 0.01 | 0.01 | 16 | 1020.8 |
| 20260906200035 | 90 | 217 | 7.0 | 13.9 | 0.00 | 0.01 | 0.01 | 18 | 1020.8 |
| 20260906200029 | 90 | 223 | 9.6 | 19.1 | 0.00 | 0.01 | 0.01 | 16 | 1020.9 |
| 20260906195030 | 89 | 223 | 7.8 | 19.1 | 0.00 | 0.01 | 0.01 | 17 | 1020.8 |
| 20260906194529 | 90 | 240 | 8.7 | 19.1 | 0.00 | 0.01 | 0.01 | 18 | 1020.8 |
| 20260906194030 | 90 | 254 | 8.7 | 18.2 | 0.00 | 0.01 | 0.01 | 16 | 1020.7 |
| 20260906193529 | 90 | 223 | 8.7 | 17.4 | 0.00 | 0.01 | 0.01 | 15 | 1020.7 |
| 20260906193030 | 89 | 250 | 8.7 | 17.4 | 0.00 | 0.01 | 0.01 | 17 | 1020.9 |
| 20260906192529 | 89 | 198 | 9.6 | 17.4 | 0.00 | 0.01 | 0.01 | 16 | 1020.9 |
| 20260906192032 | 89 | 207 | 9.6 | 17.4 | 0.00 | 0.01 | 0.01 | 16 | 1021.0 |
| 20260906191531 | 89 | 230 | 9.6 | 17.4 | 0.00 | 0.01 | 0.01 | 16 | 1021.2 |
| 20260906191029 | 89 | 205 | 10.4 | 17.4 | 0.00 | 0.01 | 0.01 | 17 | 1021.3 |
| 20260906190536 | 89 | 259 | 9.6 | 16.5 | 0.00 | 0.01 | 0.01 | 19 | 1021.4 |
| 20260906190529 | 89 | 230 | 8.7 | 16.5 | 0.00 | 0.01 | 0.01 | 17 | 1021.3 |
| 20260906185539 | 89 | 233 | 11.3 | 19.1 | 0.00 | 0.01 | 0.01 | 17 | 1021.7 |
| 20260906185531 | 89 | 248 | 8.7 | 16.5 | 0.00 | 0.01 | 0.01 | 16 | 1021.6 |
| 20260906185029 | 89 | 251 | 10.4 | 19.1 | 0.00 | 0.01 | 0.01 | 18 | 1021.6 |
| 20260906184037 | 88 | 209 | 7.8 | 19.1 | 0.00 | 0.01 | 0.01 | 18 | 1021.9 |
| 20260906184030 | 88 | 242 | 9.6 | 19.1 | 0.00 | 0.01 | 0.01 | 17 | 1021.7 |
| 20260906183032 | 87 | 230 | 7.8 | 15.6 | 0.00 | 0.01 | 0.01 | 18 | 1022.0 |
| 20260906182531 | 87 | 276 | 9.6 | 15.6 | 0.00 | 0.01 | 0.01 | 18 | 1022.1 |
| 20260906182032 | 87 | 236 | 11.3 | 18.2 | 0.00 | 0.01 | 0.01 | 16 | 1022.2 |
| 20260906181531 | 87 | 253 | 10.4 | 18.2 | 0.00 | 0.01 | 0.01 | 18 | 1022.3 |
| 20260906181028 | 87 | 259 | 10.4 | 19.1 | 0.00 | 0.01 | 0.01 | 20 | 1022.3 |
| 20260906180528 | 86 | 236 | 12.2 | 19.1 | 0.00 | 0.01 | 0.01 | 18 | 1022.4 |
| 20260906180025 | 86 | 243 | 11.3 | 20.0 | 0.00 | 0.01 | 0.01 | 17 | 1022.4 |
| 20260906175527 | 86 | 217 | 11.3 | 20.0 | 0.00 | 0.01 | 0.01 | 18 | 1022.6 |
| 20260906175032 | 86 | 219 | 12.2 | 19.1 | 0.00 | 0.01 | 0.01 | 20 | 1022.7 |
| 20260906175026 | 86 | 234 | 12.2 | 20.0 | 0.00 | 0.01 | 0.01 | 19 | 1022.7 |
| 20260906174032 | 85 | 217 | 12.2 | 20.0 | 0.00 | 0.01 | 0.01 | 19 | 1022.9 |
| 20260906174026 | 86 | 220 | 13.0 | 18.2 | 0.00 | 0.01 | 0.01 | 19 | 1022.7 |
| 20260906173658 | 85 | 244 | 13.0 | 20.0 | 0.00 | 0.01 | 0.01 | 19 | 1022.9 |
| 20260906172521 | 84 | 224 | 13.0 | 19.1 | 0.00 | 0.01 | 0.01 | 20 | 1022.9 |
| 20260906172021 | 84 | 233 | 13.0 | 19.1 | 0.00 | 0.01 | 0.01 | 20 | 1022.9 |
| 20260906171522 | 84 | 219 | 12.2 | 17.4 | 0.00 | 0.01 | 0.01 | 20 | 1023.0 |
| 20260906171023 | 84 | 216 | 12.2 | 17.4 | 0.00 | 0.01 | 0.01 | 21 | 1023.1 |
| 20260906170520 | 84 | 222 | 11.3 | 17.4 | 0.00 | 0.01 | 0.01 | 21 | 1023.1 |
| 20260906170019 | 83 | 238 | 11.3 | 16.5 | 0.00 | 0.01 | 0.01 | 21 | 1023.1 |
| 20260906165519 | 83 | 230 | 11.3 | 17.4 | 0.00 | 0.01 | 0.01 | 21 | 1023.1 |
| 20260906165020 | 83 | 249 | 11.3 | 17.4 | 0.00 | 0.01 | 0.01 | 23 | 1023.3 |
| 20260906164528 | 82 | 213 | 11.3 | 16.5 | 0.00 | 0.01 | 0.01 | 23 | 1023.4 |
| 20260906164521 | 83 | 255 | 11.3 | 16.5 | 0.00 | 0.01 | 0.01 | 23 | 1023.4 |
| 20260906163520 | 82 | 242 | 10.4 | 15.6 | 0.00 | 0.01 | 0.01 | 24 | 1023.4 |
| 20260906163021 | 82 | 251 | 9.6 | 15.6 | 0.00 | 0.01 | 0.01 | 24 | 1023.4 |
| 20260906162521 | 82 | 236 | 9.6 | 14.8 | 0.00 | 0.01 | 0.01 | 25 | 1023.4 |
| 20260906162019 | 81 | 243 | 8.7 | 15.6 | 0.00 | 0.01 | 0.01 | 26 | 1023.5 |
| 20260906161520 | 81 | 220 | 8.7 | 15.6 | 0.00 | 0.01 | 0.01 | 26 | 1023.5 |
| 20260906161022 | 80 | 244 | 8.7 | 15.6 | 0.00 | 0.01 | 0.01 | 28 | 1023.5 |
| 20260906160520 | 79 | 243 | 7.8 | 15.6 | 0.00 | 0.01 | 0.01 | 31 | 1023.6 |
| 20260906160022 | 77 | 240 | 5.2 | 14.8 | 0.00 | 0.01 | 0.01 | 34 | 1023.5 |
| 20260906155519 | 76 | 238 | 2.6 | 8.7 | 0.00 | 0.01 | 0.01 | 39 | 1023.6 |
| 20260906155021 | 75 | 275 | 1.7 | 6.1 | 0.00 | 0.01 | 0.01 | 44 | 1023.7 |
| 20260906154519 | 74 | 277 | 1.7 | 6.1 | 0.00 | 0.01 | 0.01 | 44 | 1023.8 |
| 20260906154019 | 73 | 284 | 0.9 | 3.5 | 0.00 | 0.01 | 0.01 | 47 | 1023.8 |
| 20260906153524 | 72 | 284 | 2.6 | 5.2 | 0.00 | 0.01 | 0.01 | 48 | 1023.8 |
| 20260906153520 | 73 | 284 | 1.7 | 5.2 | 0.00 | 0.01 | 0.01 | 47 | 1023.8 |
| 20260906152527 | 70 | 285 | 1.7 | 5.2 | 0.00 | 0.01 | 0.01 | 48 | 1023.8 |
| 20260906152521 | 71 | 284 | 2.6 | 5.2 | 0.00 | 0.01 | 0.01 | 45 | 1023.7 |
| 20260906151519 | 69 | 290 | 1.7 | 3.5 | 0.00 | 0.01 | 0.01 | 47 | 1023.8 |
| 20260906151024 | 68 | 290 | 0.9 | 2.6 | 0.00 | 0.01 | 0.01 | 49 | 1024.0 |
| 20260906151017 | 69 | 290 | 0.9 | 2.6 | 0.00 | 0.01 | 0.01 | 52 | 1024.0 |
| 20260906150017 | 67 | 290 | 0.0 | 1.7 | 0.00 | 0.01 | 0.01 | 52 | 1024.1 |
| 20260906145517 | 67 | 290 | 0.9 | 2.6 | 0.00 | 0.01 | 0.01 | 52 | 1024.1 |
| 20260906145016 | 66 | 290 | 0.9 | 2.6 | 0.00 | 0.01 | 0.01 | 51 | 1024.1 |
| 20260906144518 | 65 | 290 | 0.0 | 2.6 | 0.00 | 0.01 | 0.01 | 52 | 1024.1 |
| 20260906144016 | 65 | 290 | 0.9 | 1.7 | 0.00 | 0.01 | 0.01 | 51 | 1024.0 |
| 20260906143517 | 64 | 290 | 0.9 | 2.6 | 0.00 | 0.01 | 0.01 | 53 | 1024.0 |
| 20260906143017 | 63 | 290 | 0.9 | 3.5 | 0.00 | 0.01 | 0.01 | 55 | 1024.1 |
| 20260906142515 | 62 | 290 | 0.9 | 3.5 | 0.00 | 0.01 | 0.01 | 56 | 1024.1 |
| 20260906142017 | 62 | 290 | 0.0 | 2.6 | 0.00 | 0.01 | 0.01 | 57 | 1024.1 |
| 20260906141513 | 61 | 290 | 0.9 | 3.5 | 0.00 | 0.01 | 0.01 | 56 | 1024.2 |
| 20260906141016 | 60 | 290 | 0.9 | 3.5 | 0.00 | 0.01 | 0.01 | 58 | 1024.2 |
| 20260906140513 | 60 | 290 | 0.0 | 2.6 | 0.00 | 0.01 | 0.01 | 58 | 1024.2 |
| 20260906140014 | 58 | 290 | 0.0 | 1.7 | 0.00 | 0.01 | 0.01 | 60 | 1024.1 |
| 20260906135511 | 58 | 290 | 0.0 | 1.7 | 0.00 | 0.01 | 0.01 | 61 | 1024.2 |
| 20260906135011 | 57 | 290 | 0.0 | 1.7 | 0.00 | 0.01 | 0.01 | 63 | 1024.2 |
| 20260906134511 | 57 | 290 | 0.9 | 2.6 | 0.00 | 0.01 | 0.01 | 63 | 1024.2 |
| 20260906134012 | 56 | 290 | 0.0 | 2.6 | 0.00 | 0.01 | 0.01 | 64 | 1024.1 |
| 20260906133513 | 56 | 290 | 0.0 | 0.9 | 0.00 | 0.01 | 0.01 | 64 | 1024.1 |
| 20260906133027 | 55 | 290 | 0.0 | 0.9 | 0.00 | 0.01 | 0.01 | 63 | 1024.0 |
| 20260906133015 | 55 | 290 | 0.0 | 0.9 | 0.00 | 0.01 | 0.01 | 63 | 1024.1 |
| 20260906132011 | 55 | 290 | 0.0 | 0.9 | 0.00 | 0.01 | 0.01 | 63 | 1024.0 |
| 20260906131509 | 54 | 290 | 0.0 | 0.9 | 0.00 | 0.01 | 0.01 | 64 | 1024.0 |
| 20260906131010 | 54 | 0 | 0.0 | 0.9 | 0.00 | 0.01 | 0.01 | 65 | 1023.8 |
| 20260906130509 | 53 | 289 | 0.0 | 1.7 | 0.00 | 0.01 | 0.01 | 66 | 1023.8 |
| 20260906130016 | 53 | 290 | 0.0 | 1.7 | 0.00 | 0.01 | 0.01 | 66 | 1023.8 |
| 20260906130011 | 53 | 290 | 0.0 | 1.7 | 0.00 | 0.01 | 0.01 | 66 | 1023.8 |
| 20260906125015 | 53 | 290 | 0.0 | 1.7 | 0.00 | 0.01 | 0.01 | 66 | 1023.7 |
| 20260906125009 | 53 | 290 | 0.0 | 1.7 | 0.00 | 0.01 | 0.01 | 66 | 1023.8 |
| 20260906124007 | 53 | 290 | 0.0 | 1.7 | 0.00 | 0.01 | 0.01 | 66 | 1023.8 |
| 20260906123513 | 52 | 290 | 0.0 | 2.6 | 0.00 | 0.01 | 0.01 | 67 | 1023.8 |
| 20260906123507 | 53 | 290 | 0.0 | 0.9 | 0.00 | 0.01 | 0.01 | 66 | 1024.0 |
| 20260906122513 | 52 | 290 | 0.0 | 0.9 | 0.00 | 0.01 | 0.01 | 66 | 1023.8 |
| 20260906122506 | 52 | 290 | 0.0 | 2.6 | 0.00 | 0.01 | 0.01 | 66 | 1023.8 |
| 20260906122144 | 53 | 290 | 0.0 | 0.0 | 0.00 | 0.01 | 0.01 | 66 | 1023.8 |
| 20260906121009 | 53 | 290 | 0.0 | 0.9 | 0.00 | 0.01 | 0.01 | 66 | 1023.8 |
| 20260906120511 | 53 | 290 | 0.0 | 1.7 | 0.00 | 0.01 | 0.01 | 66 | 1023.8 |
| 20260906120007 | 53 | 290 | 0.0 | 1.7 | 0.00 | 0.01 | 0.01 | 66 | 1023.7 |
| 20260906115509 | 52 | 290 | 0.0 | 0.9 | 0.00 | 0.01 | 0.01 | 67 | 1023.8 |
| 20260906115007 | 52 | 290 | 0.9 | 3.5 | 0.00 | 0.01 | 0.01 | 67 | 1023.8 |
| 20260906114506 | 52 | 290 | 0.9 | 3.5 | 0.00 | 0.01 | 0.01 | 67 | 1024.0 |
| 20260906114011 | 52 | 290 | 0.9 | 4.3 | 0.00 | 0.01 | 0.01 | 66 | 1023.8 |
| 20260906114005 | 52 | 290 | 0.9 | 4.3 | 0.00 | 0.01 | 0.01 | 67 | 1024.0 |
| 20260906113003 | 53 | 290 | 0.9 | 3.5 | 0.00 | 0.01 | 0.01 | 66 | 1023.7 |
| 20260906112511 | 53 | 291 | 0.9 | 3.5 | 0.00 | 0.01 | 0.01 | 65 | 1023.8 |
| 20260906112504 | 53 | 291 | 0.9 | 3.5 | 0.00 | 0.01 | 0.01 | 66 | 1023.7 |
| 20260906112135 | 54 | 291 | 0.9 | 2.6 | 0.00 | 0.01 | 0.01 | 63 | 1023.8 |
| 20260906111003 | 54 | 291 | 0.0 | 2.6 | 0.00 | 0.01 | 0.01 | 64 | 1023.8 |
| 20260906110504 | 54 | 291 | 0.0 | 2.6 | 0.00 | 0.01 | 0.01 | 64 | 1023.8 |
| 20260906110009 | 54 | 291 | 0.0 | 3.5 | 0.00 | 0.01 | 0.01 | 65 | 1023.8 |
| 20260906110003 | 54 | 291 | 0.9 | 3.5 | 0.00 | 0.01 | 0.01 | 64 | 1023.8 |
| 20260906104959 | 53 | 290 | 0.0 | 1.7 | 0.00 | 0.01 | 0.01 | 67 | 1023.7 |
| 20260906104459 | 53 | 290 | 0.0 | 0.0 | 0.00 | 0.01 | 0.01 | 68 | 1023.8 |
| 20260906104001 | 53 | 290 | 0.0 | 1.7 | 0.00 | 0.01 | 0.01 | 67 | 1023.8 |
| 20260906103457 | 53 | 290 | 0.9 | 3.5 | 0.00 | 0.01 | 0.01 | 64 | 1023.7 |
| 20260906102959 | 54 | 290 | 0.9 | 6.1 | 0.00 | 0.01 | 0.01 | 63 | 1023.8 |
| 20260906102459 | 54 | 291 | 0.9 | 6.1 | 0.00 | 0.01 | 0.01 | 64 | 1023.7 |
| 20260906102001 | 55 | 292 | 0.0 | 2.6 | 0.00 | 0.01 | 0.01 | 63 | 1023.7 |
| 20260906101456 | 55 | 292 | 0.0 | 2.6 | 0.00 | 0.01 | 0.01 | 62 | 1023.6 |
| 20260906100955 | 55 | 292 | 0.0 | 3.5 | 0.00 | 0.01 | 0.01 | 62 | 1023.6 |
| 20260906100453 | 55 | 292 | 0.0 | 3.5 | 0.00 | 0.01 | 0.01 | 63 | 1023.5 |
| 20260906095954 | 55 | 292 | 0.0 | 0.9 | 0.00 | 0.01 | 0.01 | 63 | 1023.6 |
| 20260906095452 | 56 | 292 | 0.0 | 0.0 | 0.00 | 0.01 | 0.01 | 63 | 1023.5 |
| 20260906094954 | 56 | 292 | 0.0 | 0.0 | 0.00 | 0.01 | 0.01 | 63 | 1023.5 |
| 20260906094453 | 56 | 292 | 0.0 | 0.0 | 0.00 | 0.01 | 0.01 | 62 | 1023.5 |
| 20260906094003 | 56 | 292 | 0.0 | 1.7 | 0.00 | 0.01 | 0.01 | 62 | 1023.5 |
| 20260906093955 | 56 | 292 | 0.0 | 0.0 | 0.00 | 0.01 | 0.01 | 62 | 1023.5 |
| 20260906093453 | 56 | 292 | 0.0 | 1.7 | 0.00 | 0.01 | 0.01 | 61 | 1023.5 |
| 20260906093126 | 56 | 292 | 0.0 | 1.7 | 0.00 | 0.01 | 0.01 | 62 | 1023.5 |
| 20260906092001 | 56 | 292 | 0.9 | 3.5 | 0.01 | 0.01 | 0.01 | 62 | 1023.4 |
| 20260906091955 | 56 | 292 | 0.9 | 2.6 | 0.01 | 0.01 | 0.01 | 62 | 1023.5 |
| 20260906090953 | 56 | 292 | 0.9 | 3.5 | 0.01 | 0.01 | 0.01 | 62 | 1023.5 |
| 20260906090453 | 56 | 292 | 0.9 | 3.5 | 0.01 | 0.01 | 0.01 | 64 | 1023.5 |
| 20260906085953 | 55 | 292 | 0.9 | 3.5 | 0.01 | 0.01 | 0.01 | 64 | 1023.5 |
| 20260906085453 | 56 | 292 | 0.9 | 3.5 | 0.01 | 0.01 | 0.01 | 64 | 1023.4 |
| 20260906084953 | 56 | 292 | 0.9 | 2.6 | 0.01 | 0.01 | 0.01 | 64 | 1023.4 |
| 20260906084453 | 56 | 292 | 0.9 | 3.5 | 0.01 | 0.01 | 0.01 | 64 | 1023.4 |
| 20260906084001 | 56 | 292 | 0.0 | 2.6 | 0.01 | 0.01 | 0.01 | 66 | 1023.4 |
| 20260906083955 | 56 | 292 | 0.9 | 3.5 | 0.01 | 0.01 | 0.01 | 64 | 1023.4 |
| 20260906082953 | 56 | 292 | 0.0 | 1.7 | 0.01 | 0.01 | 0.01 | 66 | 1023.5 |
| 20260906082459 | 56 | 292 | 0.9 | 3.5 | 0.00 | 0.00 | 0.00 | 65 | 1023.4 |
| 20260906082453 | 56 | 292 | 0.0 | 2.6 | 0.01 | 0.01 | 0.01 | 67 | 1023.4 |
| 20260906082126 | 58 | 292 | 0.0 | 3.5 | 0.00 | 0.00 | 0.00 | 62 | 1023.4 |
| 20260906081453 | 57 | 292 | 0.9 | 3.5 | 0.00 | 0.00 | 0.00 | 64 | 1023.4 |
| 20260906080953 | 57 | 292 | 0.0 | 2.6 | 0.00 | 0.00 | 0.00 | 62 | 1023.5 |
| 20260906075954 | 58 | 292 | 0.9 | 3.5 | 0.00 | 0.00 | 0.00 | 61 | 1023.4 |
| 20260906075452 | 58 | 292 | 0.9 | 4.3 | 0.00 | 0.00 | 0.00 | 60 | 1023.4 |
| 20260906074954 | 59 | 292 | 1.7 | 4.3 | 0.00 | 0.00 | 0.00 | 58 | 1023.4 |
| 20260906074453 | 59 | 292 | 1.7 | 6.1 | 0.00 | 0.00 | 0.00 | 57 | 1023.4 |
| 20260906073953 | 59 | 292 | 1.7 | 7.0 | 0.00 | 0.00 | 0.00 | 57 | 1023.4 |
| 20260906073452 | 59 | 293 | 2.6 | 7.0 | 0.00 | 0.00 | 0.00 | 57 | 1023.4 |
| 20260906072955 | 59 | 284 | 2.6 | 7.0 | 0.00 | 0.00 | 0.00 | 57 | 1023.3 |
| 20260906072454 | 59 | 275 | 2.6 | 7.0 | 0.00 | 0.00 | 0.00 | 57 | 1023.3 |
| 20260906071955 | 59 | 274 | 1.7 | 7.0 | 0.00 | 0.00 | 0.00 | 57 | 1023.3 |
| 20260906071453 | 59 | 286 | 0.9 | 3.5 | 0.00 | 0.00 | 0.00 | 56 | 1023.1 |
| 20260906070952 | 59 | 286 | 0.9 | 2.6 | 0.00 | 0.00 | 0.00 | 55 | 1023.1 |
| 20260906070449 | 59 | 286 | 0.9 | 2.6 | 0.00 | 0.00 | 0.00 | 54 | 1023.1 |
| 20260906065950 | 59 | 286 | 0.9 | 3.5 | 0.00 | 0.00 | 0.00 | 53 | 1023.1 |
| 20260906065450 | 60 | 286 | 0.9 | 3.5 | 0.00 | 0.00 | 0.00 | 53 | 1023.1 |
| 20260906064951 | 60 | 287 | 0.9 | 2.6 | 0.00 | 0.00 | 0.00 | 52 | 1023.1 |
| 20260906064448 | 60 | 279 | 0.9 | 3.5 | 0.00 | 0.00 | 0.00 | 54 | 1023.3 |
| 20260906063951 | 60 | 279 | 0.9 | 3.5 | 0.00 | 0.00 | 0.00 | 54 | 1023.4 |
| 20260906063448 | 60 | 279 | 1.7 | 2.6 | 0.00 | 0.00 | 0.00 | 53 | 1023.3 |
| 20260906062950 | 60 | 279 | 0.9 | 2.6 | 0.00 | 0.00 | 0.00 | 53 | 1023.1 |
| 20260906062449 | 60 | 279 | 1.7 | 5.2 | 0.00 | 0.00 | 0.00 | 52 | 1023.0 |
| 20260906061947 | 61 | 279 | 1.7 | 5.2 | 0.00 | 0.00 | 0.00 | 49 | 1023.0 |
| 20260906061451 | 62 | 279 | 1.7 | 5.2 | 0.00 | 0.00 | 0.00 | 48 | 1023.0 |
| 20260906061445 | 63 | 278 | 0.9 | 4.3 | 0.00 | 0.00 | 0.00 | 47 | 1022.9 |
| 20260906060453 | 65 | 279 | 2.6 | 6.1 | 0.00 | 0.00 | 0.00 | 42 | 1022.9 |
| 20260906060447 | 63 | 0 | 1.7 | 4.3 | 0.00 | 0.00 | 0.00 | 45 | 1022.9 |
| 20260906055944 | 64 | 0 | 1.7 | 6.1 | 0.00 | 0.00 | 0.00 | 44 | 1022.9 |
| 20260906054942 | 67 | 298 | 2.6 | 3.5 | 0.00 | 0.00 | 0.00 | 39 | 1023.0 |
| 20260906054442 | 68 | 17 | 1.7 | 3.5 | 0.00 | 0.00 | 0.00 | 37 | 1022.9 |
| 20260906053942 | 69 | 34 | 0.9 | 3.5 | 0.00 | 0.00 | 0.00 | 36 | 1022.9 |
| 20260906053437 | 70 | 34 | 0.9 | 3.5 | 0.00 | 0.00 | 0.00 | 37 | 1022.8 |
| 20260906052937 | 70 | 48 | 1.7 | 7.0 | 0.00 | 0.00 | 0.00 | 36 | 1022.7 |
| 20260906052440 | 70 | 25 | 2.6 | 8.7 | 0.00 | 0.00 | 0.00 | 36 | 1022.7 |
| 20260906051936 | 70 | 28 | 2.6 | 8.7 | 0.00 | 0.00 | 0.00 | 36 | 1022.6 |
| 20260906051435 | 70 | 23 | 2.6 | 5.2 | 0.00 | 0.00 | 0.00 | 35 | 1022.6 |
| 20260906050937 | 70 | 33 | 1.7 | 5.2 | 0.00 | 0.00 | 0.00 | 36 | 1022.7 |
| 20260906050433 | 70 | 15 | 1.7 | 5.2 | 0.00 | 0.00 | 0.00 | 36 | 1022.7 |
| 20260906045935 | 70 | 22 | 2.6 | 7.8 | 0.00 | 0.00 | 0.00 | 36 | 1022.8 |
| 20260906045434 | 70 | 11 | 2.6 | 7.8 | 0.00 | 0.00 | 0.00 | 35 | 1022.7 |
| 20260906044935 | 70 | 25 | 3.5 | 11.3 | 0.00 | 0.00 | 0.00 | 35 | 1022.7 |
| 20260906044435 | 70 | 9 | 2.6 | 11.3 | 0.00 | 0.00 | 0.00 | 35 | 1022.8 |
| 20260906043932 | 70 | 54 | 2.6 | 7.8 | 0.00 | 0.00 | 0.00 | 35 | 1022.8 |
| 20260906043438 | 70 | 346 | 2.6 | 7.8 | 0.00 | 0.00 | 0.00 | 35 | 1022.7 |
| 20260906043432 | 70 | 350 | 1.7 | 4.3 | 0.00 | 0.00 | 0.00 | 35 | 1022.7 |
| 20260906042430 | 70 | 350 | 2.6 | 7.0 | 0.00 | 0.00 | 0.00 | 34 | 1022.7 |
| 20260906041937 | 69 | 305 | 1.7 | 7.0 | 0.00 | 0.00 | 0.00 | 35 | 1022.8 |
| 20260906041931 | 70 | 349 | 2.6 | 7.0 | 0.00 | 0.00 | 0.00 | 34 | 1022.7 |
| 20260906040931 | 68 | 259 | 0.9 | 3.5 | 0.00 | 0.00 | 0.00 | 38 | 1022.6 |
| 20260906040431 | 69 | 258 | 0.0 | 0.0 | 0.00 | 0.00 | 0.00 | 40 | 1022.4 |
| 20260906035933 | 69 | 258 | 0.0 | 0.0 | 0.00 | 0.00 | 0.00 | 39 | 1022.6 |
| 20260906035431 | 69 | 258 | 0.0 | 0.9 | 0.00 | 0.00 | 0.00 | 39 | 1022.6 |
| 20260906034933 | 70 | 258 | 0.0 | 1.7 | 0.00 | 0.00 | 0.00 | 38 | 1022.7 |
| 20260906034431 | 70 | 258 | 0.0 | 1.7 | 0.00 | 0.00 | 0.00 | 37 | 1022.7 |
| 20260906033931 | 70 | 258 | 0.0 | 0.0 | 0.00 | 0.00 | 0.00 | 38 | 1022.7 |
| 20260906033431 | 71 | 258 | 0.0 | 0.0 | 0.00 | 0.00 | 0.00 | 37 | 1022.8 |
| 20260906032937 | 72 | 258 | 0.0 | 1.7 | 0.00 | 0.00 | 0.00 | 34 | 1022.8 |
| 20260906032931 | 71 | 258 | 0.0 | 0.0 | 0.00 | 0.00 | 0.00 | 35 | 1022.8 |
| 20260906031933 | 72 | 258 | 0.0 | 1.7 | 0.00 | 0.00 | 0.00 | 34 | 1022.7 |
| 20260906031433 | 73 | 258 | 0.0 | 0.0 | 0.00 | 0.00 | 0.00 | 34 | 1022.7 |
| 20260906030931 | 73 | 258 | 0.0 | 0.0 | 0.00 | 0.00 | 0.00 | 34 | 1022.6 |
| 20260906030437 | 74 | 258 | 0.0 | 0.0 | 0.00 | 0.00 | 0.00 | 32 | 1022.7 |
| 20260906030431 | 74 | 258 | 0.0 | 0.0 | 0.00 | 0.00 | 0.00 | 33 | 1022.6 |
| 20260906024933 | 75 | 258 | 0.0 | 0.0 | 0.00 | 0.00 | 0.00 | 32 | 1022.6 |
| 20260906024431 | 75 | 258 | 0.0 | 0.0 | 0.00 | 0.00 | 0.00 | 31 | 1022.6 |
| 20260906023932 | 74 | 258 | 0.0 | 0.0 | 0.00 | 0.00 | 0.00 | 31 | 1022.6 |
| 20260906023431 | 74 | 258 | 0.0 | 0.0 | 0.00 | 0.00 | 0.00 | 32 | 1022.4 |
| 20260906022937 | 74 | 258 | 0.0 | 0.0 | 0.00 | 0.00 | 0.00 | 31 | 1022.4 |
| 20260906022932 | 74 | 258 | 0.0 | 0.0 | 0.00 | 0.00 | 0.00 | 31 | 1022.4 |
| 20260906021933 | 74 | 258 | 0.0 | 0.0 | 0.00 | 0.00 | 0.00 | 31 | 1022.3 |
| 20260906021431 | 74 | 258 | 0.0 | 0.0 | 0.00 | 0.00 | 0.00 | 32 | 1022.3 |
| 20260906020932 | 74 | 258 | 0.0 | 2.6 | 0.00 | 0.00 | 0.00 | 33 | 1022.3 |
| 20260906020434 | 74 | 258 | 0.9 | 2.6 | 0.00 | 0.00 | 0.00 | 32 | 1022.2 |
| 20260906015932 | 75 | 258 | 0.9 | 2.6 | 0.00 | 0.00 | 0.00 | 31 | 1022.2 |
| 20260906015433 | 76 | 258 | 0.9 | 1.7 | 0.00 | 0.00 | 0.00 | 31 | 1022.1 |
| 20260906014932 | 76 | 258 | 1.7 | 3.5 | 0.00 | 0.00 | 0.00 | 29 | 1022.0 |
| 20260906014438 | 78 | 0 | 2.6 | 5.2 | 0.00 | 0.00 | 0.00 | 27 | 1021.9 |
| 20260906014433 | 77 | 258 | 1.7 | 5.2 | 0.00 | 0.00 | 0.00 | 28 | 1022.0 |
| 20260906013430 | 79 | 258 | 2.6 | 5.2 | 0.00 | 0.00 | 0.00 | 26 | 1021.9 |
| 20260906012936 | 81 | 259 | 3.5 | 6.1 | 0.00 | 0.00 | 0.00 | 25 | 1021.9 |
| 20260906012930 | 80 | 258 | 2.6 | 5.2 | 0.00 | 0.00 | 0.00 | 25 | 1021.9 |
| 20260906011932 | 81 | 257 | 3.5 | 6.1 | 0.00 | 0.00 | 0.00 | 24 | 1021.9 |
| 20260906011431 | 82 | 257 | 4.3 | 7.0 | 0.00 | 0.00 | 0.00 | 24 | 1021.9 |
| 20260906010928 | 83 | 257 | 5.2 | 8.7 | 0.00 | 0.00 | 0.00 | 23 | 1021.9 |
| 20260906010428 | 83 | 254 | 4.3 | 8.7 | 0.00 | 0.00 | 0.00 | 22 | 1021.7 |
| 20260906010118 | 86 | 238 | 5.2 | 9.6 | 0.00 | 0.00 | 0.00 | 21 | 1021.7 |
| 20260906005940 | 86 | 241 | 4.3 | 7.8 | 0.00 | 0.00 | 0.00 | 21 | 1021.7 |
| 20260906005928 | 84 | 250 | 4.3 | 8.7 | 0.00 | 0.00 | 0.00 | 22 | 1021.9 |
| 20260906005434 | 85 | 255 | 4.3 | 7.8 | 0.00 | 0.00 | 0.00 | 22 | 1021.7 |
| 20260906003928 | 87 | 251 | 5.2 | 11.3 | 0.00 | 0.00 | 0.00 | 21 | 1021.7 |
| 20260906003429 | 87 | 252 | 5.2 | 11.3 | 0.00 | 0.00 | 0.00 | 21 | 1021.7 |
| 20260906002930 | 87 | 263 | 5.2 | 10.4 | 0.00 | 0.00 | 0.00 | 20 | 1021.6 |
| 20260906002428 | 88 | 281 | 6.1 | 13.9 | 0.00 | 0.00 | 0.00 | 20 | 1021.6 |
| 20260906001926 | 88 | 258 | 7.0 | 13.9 | 0.00 | 0.00 | 0.00 | 19 | 1021.6 |
| 20260906001428 | 88 | 256 | 6.1 | 11.3 | 0.00 | 0.00 | 0.00 | 19 | 1021.6 |
| 20260906000932 | 89 | 238 | 7.0 | 14.8 | 0.00 | 0.00 | 0.00 | 19 | 1021.6 |
| 20260906000926 | 88 | 223 | 6.1 | 14.8 | 0.00 | 0.00 | 0.00 | 19 | 1021.6 |
| 20260905235936 | 89 | 254 | 4.3 | 9.6 | 0.00 | 0.00 | 0.00 | 21 | 1021.7 |
| 20260905235928 | 89 | 221 | 5.2 | 13.9 | 0.00 | 0.00 | 0.00 | 19 | 1021.6 |
| 20260905235428 | 89 | 238 | 3.5 | 10.4 | 0.00 | 0.00 | 0.00 | 20 | 1021.6 |
| 20260905234429 | 89 | 236 | 5.2 | 9.6 | 0.00 | 0.00 | 0.00 | 19 | 1021.6 |
| 20260905233934 | 90 | 230 | 7.0 | 12.2 | 0.00 | 0.00 | 0.00 | 18 | 1021.6 |
| 20260905233928 | 89 | 238 | 7.0 | 12.2 | 0.00 | 0.00 | 0.00 | 20 | 1021.6 |
| 20260905232927 | 90 | 232 | 7.0 | 12.2 | 0.00 | 0.00 | 0.00 | 19 | 1021.5 |
| 20260905232427 | 90 | 215 | 6.1 | 12.2 | 0.00 | 0.00 | 0.00 | 19 | 1021.6 |
| 20260905231938 | 90 | 238 | 5.2 | 10.4 | 0.00 | 0.00 | 0.00 | 20 | 1021.6 |
| 20260905231927 | 90 | 248 | 6.1 | 12.2 | 0.00 | 0.00 | 0.00 | 19 | 1021.5 |
| 20260905231426 | 90 | 222 | 7.0 | 13.9 | 0.00 | 0.00 | 0.00 | 19 | 1021.5 |
| 20260905230928 | 90 | 215 | 6.1 | 13.9 | 0.00 | 0.00 | 0.00 | 19 | 1021.5 |
| 20260905225926 | 90 | 265 | 5.2 | 8.7 | 0.00 | 0.00 | 0.00 | 20 | 1021.6 |
| 20260905225428 | 90 | 260 | 6.1 | 12.2 | 0.00 | 0.00 | 0.00 | 21 | 1021.6 |
| 20260905224932 | 90 | 231 | 7.0 | 12.2 | 0.00 | 0.00 | 0.00 | 20 | 1021.6 |
| 20260905224926 | 90 | 217 | 7.0 | 12.2 | 0.00 | 0.00 | 0.00 | 19 | 1021.6 |
| 20260905223924 | 90 | 235 | 5.2 | 12.2 | 0.00 | 0.00 | 0.00 | 19 | 1021.6 |
| 20260905223426 | 90 | 247 | 5.2 | 11.3 | 0.00 | 0.00 | 0.00 | 21 | 1021.6 |
| 20260905222926 | 90 | 251 | 7.0 | 11.3 | 0.00 | 0.00 | 0.00 | 20 | 1021.7 |
| 20260905222422 | 89 | 238 | 8.7 | 14.8 | 0.00 | 0.00 | 0.00 | 19 | 1021.9 |
| 20260905221925 | 90 | 196 | 8.7 | 18.2 | 0.00 | 0.00 | 0.00 | 19 | 1021.9 |
| 20260905221423 | 90 | 215 | 6.1 | 18.2 | 0.00 | 0.00 | 0.00 | 18 | 1021.9 |
| 20260905220925 | 90 | 288 | 6.1 | 10.4 | 0.00 | 0.00 | 0.00 | 23 | 1021.9 |
| 20260905220430 | 88 | 218 | 7.8 | 14.8 | 0.00 | 0.00 | 0.00 | 20 | 1022.0 |
| 20260905220424 | 88 | 254 | 6.1 | 10.4 | 0.00 | 0.00 | 0.00 | 22 | 1022.0 |